Home   Weather   Fayetteville   Past weeks
Flag for USA

Past Weather in Fayetteville, North Carolina, USA — Yesterday and Last 2 Weeks

Now
80 °F

Sunny.


Feels Like: 85 °F
Forecast: 97 / 76 °F
Wind: 10 mph from Southwest

Location: Fayetteville Regional Airport

Current Time: Jul 21, 2019 at 8:57:39 am

Latest Report: Jul 21, 2019 at 7:53 am


Visibility: 10 mi

Pressure: 29.99 "Hg

Humidity: 87%

Dew Point: 76 °F

Location of FayettevilleLocation

Past Weather in Fayetteville — Graph

°F

Fayetteville Temperature Yesterday

Maximum temperature yesterday: 96 °F (at 2:53 pm)
Minimum temperature yesterday: 74 °F (at 5:53 am)
Average temperature yesterday: 85 °F

High & Low Weather Summary for the Past Weeks

 TemperatureHumidityPressure
High97 °F (Jul 16, 1:53 pm)100% (Jul 7, 4:53 am)30.09 "Hg (Jul 7, 4:53 am)
Low73 °F (Jul 10, 1:32 am)34% (Jul 14, 4:53 pm)29.80 "Hg (Jul 8, 2:53 pm)
Average83 °F79%29.96 "Hg
* Reported Jul 6 7:53 am — Jul 21 7:53 am, Fayetteville. Weather by CustomWeather, © 2019

Note: Actual official high and low records may vary slightly from our data, if they occured in-between our weather recording intervals... More about our weather records

Advertising

Fayetteville Weather History for the Previous 24 Hours

Scroll right to see more
 ConditionsComfort  
Time TempWeatherWind HumidityBarometerVisibility
7:53 am
Sun, Jul 21
80 °FSunny.10 mph87%29.99 "Hg10 mi
6:53 am76 °FSunny.7 mph94%29.97 "Hg10 mi
5:53 am76 °FClear.6 mph91%29.97 "Hg10 mi
4:53 am77 °FClear.6 mph88%29.96 "Hg10 mi
3:53 am78 °FClear.6 mph82%29.96 "Hg10 mi
2:53 am80 °FClear.9 mph76%29.96 "Hg10 mi
1:53 am82 °FClear.10 mph72%29.98 "Hg10 mi
12:53 am82 °FClear.9 mph74%29.98 "Hg10 mi
11:53 pm
Sat, Jul 20
81 °FClear.8 mph77%29.98 "Hg10 mi
10:53 pm83 °FClear.7 mph72%29.97 "Hg10 mi
9:53 pm85 °FClear.6 mph65%29.96 "Hg10 mi
8:53 pm89 °FPassing clouds.3 mph57%29.95 "Hg10 mi
7:53 pm92 °FSunny.8 mph52%29.93 "Hg10 mi
6:53 pm93 °FSunny.13 mph49%29.91 "Hg10 mi
5:53 pm95 °FPassing clouds.13 mph51%29.91 "Hg10 mi
4:53 pm96 °FSunny.13 mph46%29.94 "Hg10 mi
3:53 pm96 °FSunny.14 mph46%29.96 "Hg10 mi
2:53 pm96 °FPassing clouds.13 mph47%29.96 "Hg10 mi
1:53 pm94 °FSunny.12 mph52%29.96 "Hg10 mi
12:53 pm93 °FSunny.9 mph54%29.99 "Hg10 mi
11:53 am91 °FSunny.12 mph57%30.01 "Hg10 mi
10:53 am88 °FSunny.8 mph67%30.01 "Hg10 mi
9:53 am84 °FSunny.8 mph74%30.01 "Hg10 mi
8:53 am81 °FSunny.10 mph79%30.01 "Hg10 mi
Weather by CustomWeather, © 2019

See weather overview